"startDT [UTC]","vpos","CH4 [ppm]","stdev(CH4) [ppm]","CO2 [ppm]","stdev(CO2) [ppm]","H2O_reported [%]","stdev(H2O_reported)","CavityPressure [torr]","CavityTemp [C]","OutletValve","CH4_dry [ppm]","CO2_dry [ppm]","DasTemp [C]","EtalonTemp [C]","WarmBoxTemp [C]","MPVPosition","T_ECpre [C]","T_EC1 [C]","T_EC2 [C]","p_inlet [hPa]","p_in [hPa]","p_out [hPa]","T_inlet [C]","RH_inlet [%]","dwpt_inlet [C]","T_vent [C]","RH_vent [%]","dwpt_vent [C]","flow_vent [l min-1]","flow_inlet [l min-1]","dwpt_sample [C]","T_room [C]"
2013-12-27 00:00:00,0.0,1.91304,0.00028,406.128,0.000,0.0416,0.0020,140.008,45.000,31750.06091,1.91371,406.330,33.250,45.060,45.000,0.00,0.11,-272.58,-272.65,-19,574,-4,21.8,1.4,-33.6,21.8,1.5,-32.9,5.73,2.53,-16.5,27.8
2013-12-27 00:01:00,0.0,1.91302,0.00021,406.128,0.000,0.0445,0.0024,139.998,45.000,31748.44052,1.91393,406.343,33.250,45.060,45.000,0.00,0.11,-272.58,-272.65,-19,574,-4,21.8,1.4,-33.4,21.9,1.5,-32.7,5.73,2.58,-16.5,27.8
2013-12-27 00:02:00,0.0,1.91297,0.00032,406.128,0.000,0.0432,0.0017,139.995,45.000,31746.88829,1.91381,406.340,33.255,45.060,45.000,0.00,0.11,-272.58,-272.64,-19,574,-4,21.8,1.4,-33.1,21.8,1.5,-32.4,5.73,2.62,-16.5,27.8
2013-12-27 00:03:00,0.0,1.91279,0.00025,406.128,0.000,0.0448,0.0011,139.999,45.000,31748.22673,1.91359,406.347,33.250,45.060,45.000,0.00,0.11,-272.58,-272.64,-19,574,-4,21.8,1.4,-33.2,21.8,1.5,-32.5,5.73,2.63,-16.5,27.8
2013-12-27 00:04:00,0.0,1.91319,0.00029,406.128,0.000,0.0431,0.0008,140.003,45.000,31748.22223,1.91396,406.339,33.250,45.060,45.000,0.00,0.11,-272.58,-272.65,-19,574,-4,21.8,1.4,-33.2,21.9,1.5,-32.4,5.73,2.59,-16.5,27.8
2013-12-27 00:05:00,0.0,1.91266,0.00025,406.128,0.000,0.0441,0.0015,140.004,45.000,31749.20913,1.91360,406.344,33.250,45.060,45.000,0.00,0.11,-272.58,-272.65,-19,574,-4,21.8,1.4,-33.1,21.8,1.6,-32.2,5.73,2.54,-16.5,27.8
2013-12-27 00:06:00,0.0,1.91279,0.00034,406.128,0.000,0.0464,0.0007,140.000,45.000,31750.15176,1.91358,406.351,33.250,45.060,45.000,0.00,0.11,-272.58,-272.64,-20,574,-4,21.8,1.4,-33.0,21.8,1.5,-32.3,5.73,2.55,-16.5,27.8
2013-12-27 00:07:00,0.0,1.91282,0.00029,406.128,0.000,0.0456,0.0019,140.006,45.000,31752.97251,1.91369,406.350,33.250,45.060,45.000,0.00,0.11,-272.58,-272.65,-19,574,-4,21.8,1.4,-33.0,21.9,1.6,-32.3,5.73,2.59,-16.5,27.8
2013-12-27 00:08:00,0.0,1.91233,0.00022,406.128,0.000,0.0445,0.0014,139.998,45.000,31751.33606,1.91328,406.348,33.250,45.060,45.000,0.00,0.11,-272.58,-272.65,-19,574,-4,21.8,1.4,-33.0,21.9,1.6,-32.2,5.73,2.64,-16.5,27.8
2013-12-27 00:09:00,0.0,1.91321,0.00053,406.128,0.000,0.0426,0.0008,139.997,45.000,31749.21043,1.91396,406.337,33.250,45.060,45.000,0.00,0.11,-272.58,-272.64,-19,574,-4,21.8,1.4,-33.3,21.9,1.5,-32.6,5.73,2.63,-16.5,27.8
2013-12-27 00:10:00,0.0,1.91283,0.00044,406.128,0.000,0.0435,0.0013,139.999,45.000,31751.10328,1.91361,406.340,33.244,45.060,45.000,0.00,0.11,-272.58,-272.64,-19,574,-4,21.8,1.4,-33.1,21.9,1.5,-32.4,5.73,2.57,-16.5,27.8
2013-12-27 00:11:00,0.0,1.91267,0.00015,406.128,0.000,0.0445,0.0018,139.996,45.000,31751.49443,1.91353,406.345,33.248,45.060,45.000,0.00,0.11,-272.58,-272.65,-19,574,-4,21.8,1.4,-33.1,21.9,1.6,-32.3,5.73,2.54,-16.5,27.8
2013-12-27 00:12:00,0.0,1.91265,0.00021,405.830,0.141,0.0444,0.0019,139.999,45.000,31752.59278,1.91351,406.079,33.250,45.060,45.000,0.00,0.11,-272.58,-272.65,-19,574,-4,21.8,1.5,-33.0,21.9,1.6,-32.2,5.73,2.55,-16.5,27.8
2013-12-27 00:13:00,0.0,1.91282,0.00046,405.764,0.000,0.0455,0.0013,139.999,45.000,31752.57504,1.91356,405.986,33.250,45.060,45.000,0.00,0.11,-272.58,-272.64,-19,574,-4,21.8,1.4,-33.0,21.9,1.6,-32.2,5.73,2.61,-16.5,27.8
2013-12-27 00:14:00,0.0,1.91235,0.00028,405.764,0.000,0.0445,0.0006,140.002,45.000,31753.66880,1.91337,405.981,33.250,45.060,45.000,0.00,0.11,-272.58,-272.65,-20,574,-4,21.8,1.4,-33.0,21.9,1.6,-32.2,5.73,2.64,-16.5,27.8
2013-12-27 00:15:00,0.0,1.91256,0.00041,405.764,0.000,0.0447,0.0005,140.001,45.000,31752.08350,1.91334,405.982,33.250,45.060,45.000,0.00,0.11,-272.58,-272.64,-19,574,-4,21.8,1.4,-33.2,21.9,1.6,-32.2,5.73,2.60,-16.5,27.8
2013-12-27 00:16:00,0.0,1.91274,0.00017,405.764,0.000,0.0443,0.0017,139.993,45.000,31747.93063,1.91347,405.981,33.250,45.060,45.000,0.00,0.11,-272.58,-272.64,-19,574,-4,21.8,1.4,-33.0,21.9,1.6,-32.2,5.73,2.55,-16.5,27.8
2013-12-27 00:17:00,0.0,1.91257,0.00047,405.764,0.000,0.0443,0.0025,140.008,45.000,31753.80072,1.91339,405.978,33.250,45.060,45.000,0.00,0.11,-272.58,-272.65,-19,574,-4,21.8,1.4,-33.0,21.9,1.6,-32.2,5.73,2.54,-16.5,27.8
2013-12-27 00:18:00,0.0,1.91245,0.00028,405.764,0.000,0.0432,0.0010,140.003,45.000,31753.37676,1.91335,405.977,33.250,45.060,45.000,0.00,0.11,-272.58,-272.65,-20,574,-4,21.8,1.4,-33.1,21.9,1.5,-32.4,5.73,2.59,-16.5,27.8
2013-12-27 00:19:00,0.0,1.91330,0.00041,405.764,0.000,0.0458,0.0015,139.994,45.000,31750.96585,1.91393,405.984,33.250,45.060,45.000,0.00,0.11,-272.58,-272.64,-19,574,-4,21.8,1.4,-33.2,21.9,1.5,-32.4,5.73,2.63,-16.5,27.8
2013-12-27 00:20:00,0.0,1.91363,0.00017,405.764,0.000,0.0445,0.0014,139.995,45.000,31752.04827,1.91441,405.982,33.250,45.060,45.000,0.00,0.11,-272.58,-272.65,-19,574,-4,21.8,1.4,-33.3,21.9,1.5,-32.5,5.73,2.63,-16.5,27.8
2013-12-27 00:21:00,0.0,1.91390,0.00015,405.764,0.000,0.0427,0.0026,139.999,45.000,31751.71793,1.91466,405.973,33.250,45.060,45.000,0.00,0.11,-272.58,-272.64,-19,574,-4,21.8,1.4,-33.3,21.9,1.5,-32.6,5.73,2.58,-16.5,27.8
2013-12-27 00:22:00,0.0,1.91418,0.00028,405.764,0.000,0.0436,0.0015,140.004,45.000,31753.53714,1.91490,405.975,33.256,45.060,45.000,0.00,0.11,-272.58,-272.64,-19,574,-4,21.8,1.4,-33.3,21.9,1.5,-32.6,5.73,2.54,-16.5,27.8
2013-12-27 00:23:00,0.0,1.91379,0.00021,405.764,0.000,0.0441,0.0018,140.005,45.000,31753.99590,1.91475,405.979,33.264,45.060,45.000,0.00,0.11,-272.58,-272.64,-20,574,-4,21.8,1.4,-33.3,21.9,1.5,-32.6,5.73,2.55,-16.5,27.8
2013-12-27 00:24:00,0.0,1.91369,0.00022,405.764,0.000,0.0444,0.0009,140.002,45.000,31753.23156,1.91454,405.981,33.260,45.060,45.000,0.00,0.11,-272.58,-272.64,-19,574,-4,21.8,1.4,-33.2,21.9,1.5,-32.4,5.73,2.61,-16.5,27.8
2013-12-27 00:25:00,0.0,1.91377,0.00025,405.764,0.000,0.0445,0.0029,140.000,45.000,31753.15863,1.91457,405.981,33.253,45.060,45.000,0.00,0.11,-272.58,-272.65,-19,574,-4,21.8,1.4,-33.1,21.9,1.5,-32.3,5.73,2.64,-16.5,27.8
2013-12-27 00:26:00,0.0,1.91373,0.00036,405.764,0.000,0.0445,0.0017,140.009,45.000,31757.27293,1.91452,405.979,33.253,45.060,45.000,0.00,0.11,-272.58,-272.64,-19,574,-4,21.8,1.4,-33.1,21.9,1.5,-32.3,5.73,2.62,-16.5,27.8
2013-12-27 00:27:00,0.0,1.91351,0.00037,405.764,0.000,0.0442,0.0017,140.001,45.000,31755.77356,1.91455,405.980,33.250,45.060,45.000,0.00,0.11,-272.58,-272.64,-20,574,-4,21.8,1.4,-33.0,21.9,1.6,-32.2,5.73,2.56,-16.5,27.8
2013-12-27 00:28:00,0.0,1.91349,0.00032,405.764,0.000,0.0444,0.0019,140.009,45.000,31757.32256,1.91418,405.981,33.250,45.060,45.000,0.00,0.11,-272.58,-272.65,-19,574,-4,21.8,1.4,-33.0,21.9,1.6,-32.2,5.73,2.54,-16.5,27.8
2013-12-27 00:29:00,0.0,1.91365,0.00040,405.764,0.000,0.0466,0.0014,139.997,45.000,31753.67922,1.91448,405.990,33.250,45.060,45.000,0.00,0.11,-272.58,-272.64,-19,574,-4,21.8,1.5,-33.0,21.9,1.5,-32.3,5.73,2.57,-16.5,27.8
2013-12-27 00:30:00,0.0,1.91385,0.00047,405.764,0.000,0.0453,0.0017,140.003,45.000,31755.73381,1.91483,405.984,33.250,45.060,45.000,0.00,0.11,-272.58,-272.64,-19,574,-4,21.8,1.4,-33.0,21.9,1.6,-32.2,5.73,2.62,-16.5,27.8
2013-12-27 00:31:00,0.0,1.91376,0.00024,405.764,0.000,0.0437,0.0020,140.000,45.000,31753.09408,1.91453,405.980,33.250,45.060,45.000,0.00,0.11,-272.58,-272.64,-20,574,-4,21.8,1.4,-33.1,21.9,1.6,-32.2,5.73,2.64,-16.5,27.8
2013-12-27 00:32:00,0.0,1.91381,0.00028,405.764,0.000,0.0454,0.0012,139.999,45.000,31753.46772,1.91460,405.983,33.255,45.060,45.000,0.00,0.11,-272.58,-272.64,-19,574,-4,21.8,1.4,-33.0,21.9,1.6,-32.2,5.73,2.60,-16.5,27.8
2013-12-27 00:33:00,0.0,1.91351,0.00024,405.764,0.000,0.0463,0.0028,139.994,45.000,31751.44851,1.91449,405.986,33.250,45.060,45.000,0.00,0.11,-272.58,-272.64,-19,574,-4,21.8,1.5,-32.9,21.9,1.6,-32.1,5.73,2.54,-16.5,27.8
2013-12-27 00:34:00,0.0,1.91305,0.00030,405.764,0.000,0.0462,0.0023,140.007,45.000,31755.68723,1.91403,405.990,33.253,45.060,45.000,0.00,0.11,-272.58,-272.64,-19,574,-4,21.8,1.5,-32.8,21.9,1.6,-32.0,5.73,2.54,-16.5,27.8
2013-12-27 00:35:00,0.0,1.91322,0.00026,405.764,0.000,0.0465,0.0013,140.002,45.000,31753.63591,1.91402,405.991,33.269,45.060,45.000,0.00,0.11,-272.58,-272.64,-19,574,-4,21.8,1.5,-32.8,21.9,1.6,-31.9,5.73,2.59,-16.5,27.8
2013-12-27 00:36:00,0.0,1.91348,0.00034,405.764,0.000,0.0466,0.0014,140.006,45.000,31756.30660,1.91434,405.992,33.252,45.060,45.000,0.00,0.11,-272.58,-272.64,-19,574,-4,21.8,1.5,-32.7,21.9,1.6,-31.8,5.73,2.63,-16.5,27.8
2013-12-27 00:37:00,0.0,1.91318,0.00031,405.764,0.000,0.0460,0.0016,139.999,45.000,31753.76380,1.91405,405.988,33.258,45.060,45.000,0.00,0.11,-272.58,-272.64,-19,574,-4,21.8,1.5,-32.6,21.9,1.6,-31.8,5.73,2.63,-16.5,27.8
2013-12-27 00:38:00,0.0,1.91337,0.00029,405.764,0.000,0.0471,0.0012,139.994,45.000,31754.76524,1.91426,405.993,33.270,45.060,45.000,0.00,0.11,-272.58,-272.65,-19,574,-4,21.8,1.5,-32.6,21.9,1.6,-31.8,5.73,2.59,-16.5,27.8
2013-12-27 00:39:00,0.0,1.91344,0.00022,405.764,0.000,0.0460,0.0020,139.995,45.000,31752.70051,1.91431,405.990,33.271,45.060,45.000,0.00,0.11,-272.58,-272.65,-19,574,-4,21.8,1.5,-32.6,21.9,1.6,-31.7,5.73,2.54,-16.5,27.8
2013-12-27 00:40:00,0.0,1.91363,0.00028,405.764,0.000,0.0480,0.0008,140.002,45.000,31754.28154,1.91447,405.995,33.260,45.060,45.000,0.00,0.11,-272.57,-272.64,-20,574,-4,21.8,1.5,-32.4,21.9,1.6,-31.7,5.73,2.55,-16.5,27.8
2013-12-27 00:41:00,0.0,1.91351,0.00030,405.764,0.000,0.0479,0.0034,140.004,45.000,31757.07790,1.91450,405.994,33.272,45.060,45.000,0.00,0.11,-272.58,-272.65,-19,574,-4,21.8,1.5,-32.4,21.9,1.6,-31.7,5.73,2.60,-16.5,27.8
2013-12-27 00:42:00,0.0,1.91328,0.00045,405.764,0.000,0.0478,0.0003,140.002,45.000,31754.89155,1.91428,406.000,33.262,45.060,45.000,0.00,0.11,-272.58,-272.64,-19,574,-4,21.8,1.5,-32.4,21.9,1.6,-31.6,5.73,2.64,-16.5,27.8
2013-12-27 00:43:00,0.0,1.91358,0.00021,405.764,0.000,0.0473,0.0012,139.997,45.000,31754.04227,1.91432,405.995,33.282,45.060,45.000,0.00,0.11,-272.58,-272.64,-19,574,-4,21.8,1.5,-32.4,21.9,1.6,-31.7,5.73,2.62,-16.5,27.8
2013-12-27 00:44:00,0.0,1.91353,0.00027,405.764,0.000,0.0484,0.0026,139.999,45.000,31752.45701,1.91450,406.000,33.300,45.060,45.000,0.00,0.11,-272.59,-272.64,-20,574,-4,21.8,1.5,-32.4,21.9,1.6,-31.7,5.73,2.57,-16.5,27.8
2013-12-27 00:45:00,0.0,1.91329,0.00019,405.764,0.000,0.0481,0.0013,140.000,45.000,31751.78848,1.91424,405.996,33.286,45.060,45.000,0.00,0.11,-272.58,-272.65,-19,574,-4,21.8,1.5,-32.4,21.9,1.7,-31.6,5.73,2.54,-16.5,27.8
2013-12-27 00:46:00,0.0,1.91357,0.00035,405.764,0.000,0.0458,0.0026,140.006,45.000,31753.51714,1.91435,405.988,33.306,45.060,45.000,0.00,0.11,-272.58,-272.64,-19,574,-4,21.8,1.5,-32.3,21.9,1.6,-31.7,5.73,2.55,-16.5,27.8
2013-12-27 00:47:00,0.0,1.91334,0.00033,405.764,0.000,0.0480,0.0018,139.996,45.000,31753.09376,1.91439,405.998,33.283,45.060,45.000,0.00,0.11,-272.58,-272.64,-19,574,-4,21.9,1.6,-32.2,21.9,1.7,-31.5,5.73,2.61,-16.5,27.8
2013-12-27 00:48:00,0.0,1.91288,0.00049,405.764,0.000,0.0479,0.0014,140.003,45.000,31753.64908,1.91382,405.998,33.308,45.060,45.000,0.00,0.11,-272.58,-272.64,-20,574,-4,21.8,1.5,-32.5,21.9,1.6,-31.6,5.73,2.64,-16.5,27.8
2013-12-27 00:49:00,0.0,1.91320,0.00012,405.764,0.000,0.0459,0.0016,140.000,45.000,31752.10379,1.91398,405.989,33.313,45.059,45.000,0.00,0.11,-272.58,-272.64,-19,574,-4,21.8,1.5,-32.6,21.9,1.6,-32.0,5.73,2.61,-16.5,27.8
2013-12-27 00:50:00,0.0,1.91343,0.00050,405.764,0.000,0.0449,0.0011,140.001,45.000,31752.09994,1.91421,405.984,33.298,45.059,45.000,0.00,0.11,-272.58,-272.64,-19,574,-4,21.8,1.5,-32.9,21.9,1.6,-32.1,5.73,2.56,-16.5,27.8
2013-12-27 00:51:00,0.0,1.91313,0.00019,405.764,0.000,0.0445,0.0013,139.997,45.000,31751.53829,1.91403,405.981,33.295,45.060,45.000,0.00,0.11,-272.58,-272.64,-19,574,-4,21.8,1.4,-33.1,21.9,1.5,-32.3,5.73,2.54,-16.5,27.8
2013-12-27 00:52:00,0.0,1.91358,0.00025,405.764,0.000,0.0450,0.0009,139.996,45.000,31752.17172,1.91441,405.982,33.305,45.060,45.000,0.00,0.11,-272.58,-272.64,-19,574,-4,21.8,1.4,-33.2,21.9,1.5,-32.3,5.73,2.56,-16.5,27.8
2013-12-27 00:53:00,0.0,1.91357,0.00034,405.764,0.000,0.0453,0.0018,139.997,45.000,31752.21540,1.91433,405.985,33.305,45.060,45.000,0.00,0.11,-272.58,-272.64,-20,574,-4,21.8,1.4,-33.2,21.9,1.5,-32.4,5.73,2.62,-16.5,27.8
2013-12-27 00:54:00,0.0,1.91322,0.00042,405.764,0.000,0.0436,0.0018,140.001,45.000,31754.05833,1.91407,405.977,33.307,45.060,45.000,0.00,0.11,-272.58,-272.64,-19,574,-4,21.9,1.4,-33.1,21.9,1.5,-32.4,5.73,2.64,-16.5,27.8
2013-12-27 00:55:00,0.0,1.91404,0.00040,405.764,0.000,0.0446,0.0021,140.000,45.000,31752.93023,1.91484,405.980,33.313,45.060,45.000,0.00,0.11,-272.58,-272.64,-19,574,-4,21.9,1.4,-33.1,21.9,1.5,-32.3,5.73,2.60,-16.5,27.8
2013-12-27 00:56:00,0.0,1.91366,0.00035,405.764,0.000,0.0463,0.0019,139.998,45.000,31750.92651,1.91462,405.989,33.313,45.060,45.000,0.00,0.11,-272.58,-272.65,-19,574,-4,21.9,1.4,-33.0,21.9,1.6,-32.2,5.73,2.56,-16.5,27.8
2013-12-27 00:57:00,0.0,1.91381,0.00026,405.764,0.000,0.0446,0.0016,140.005,45.000,31753.27916,1.91452,405.981,33.313,45.060,45.000,0.00,0.11,-272.57,-272.64,-20,574,-4,21.9,1.4,-33.0,21.9,1.6,-32.2,5.73,2.54,-16.5,27.8
2013-12-27 00:58:00,0.0,1.91367,0.00024,405.764,0.000,0.0447,0.0012,140.003,45.000,31755.33644,1.91455,405.983,33.313,45.060,45.000,0.00,0.11,-272.58,-272.64,-19,574,-4,21.8,1.5,-32.9,21.9,1.6,-32.2,5.73,2.57,-16.5,27.8
2013-12-27 00:59:00,0.0,1.91363,0.00054,405.764,0.000,0.0445,0.0015,140.005,45.000,31755.03404,1.91427,405.980,33.306,45.060,45.000,0.00,0.11,-272.58,-272.64,-19,574,-4,21.8,1.5,-33.0,21.9,1.6,-32.1,5.73,2.63,-16.5,27.8
2013-12-27 01:00:00,0.0,1.91383,0.00021,405.764,0.000,0.0455,0.0011,140.006,45.000,31756.28114,1.91484,405.986,33.313,45.060,45.000,0.00,0.11,-272.58,-272.64,-19,574,-4,21.9,1.5,-32.7,21.9,1.6,-32.0,5.73,2.63,-16.5,27.8
2013-12-27 01:01:00,0.0,1.91403,0.00040,405.764,0.000,0.0453,0.0009,140.000,45.000,31754.12644,1.91488,405.984,33.313,45.060,45.000,0.00,0.11,-272.58,-272.64,-20,574,-4,21.8,1.5,-32.8,21.9,1.6,-32.0,5.73,2.60,-16.5,27.8
2013-12-27 01:02:00,0.0,1.91357,0.00026,405.764,0.000,0.0464,0.0009,140.002,45.000,31755.66524,1.91450,405.990,33.313,45.060,45.000,0.00,0.11,-272.58,-272.64,-19,574,-4,21.8,1.5,-32.7,21.9,1.6,-32.0,5.73,2.55,-16.4,27.8
2013-12-27 01:03:00,0.0,1.91358,0.00014,405.764,0.000,0.0460,0.0017,139.999,45.000,31756.05202,1.91444,405.987,33.309,45.060,45.000,0.00,0.11,-272.58,-272.64,-19,574,-4,21.8,1.5,-32.8,21.9,1.6,-32.0,5.73,2.54,-16.5,27.8
2013-12-27 01:04:00,0.0,1.91348,0.00033,405.764,0.000,0.0461,0.0022,139.998,45.000,31755.37985,1.91427,405.989,33.311,45.060,45.000,0.00,0.11,-272.58,-272.65,-19,574,-4,21.8,1.5,-32.9,21.9,1.6,-32.0,5.73,2.58,-16.5,27.8
2013-12-27 01:05:00,0.0,1.91371,0.00021,405.764,0.000,0.0460,0.0021,140.002,45.000,31756.77606,1.91464,405.991,33.309,45.060,45.000,0.00,0.11,-272.58,-272.65,-19,574,-4,21.8,1.5,-32.9,21.9,1.6,-32.0,5.73,2.62,-16.5,27.8
2013-12-27 01:06:00,0.0,1.91367,0.00047,405.764,0.000,0.0447,0.0012,140.007,45.000,31757.77683,1.91457,405.980,33.292,45.060,45.000,0.00,0.11,-272.58,-272.65,-20,574,-4,21.9,1.5,-32.9,21.9,1.6,-32.0,5.73,2.64,-16.4,27.8
2013-12-27 01:07:00,0.0,1.91369,0.00029,405.764,0.000,0.0460,0.0013,139.998,45.000,31754.07484,1.91443,405.988,33.309,45.060,45.000,0.00,0.11,-272.58,-272.64,-19,574,-4,21.8,1.5,-32.8,21.9,1.6,-32.0,5.73,2.59,-16.5,27.8
2013-12-27 01:08:00,0.0,1.91339,0.00041,405.764,0.000,0.0476,0.0029,140.000,45.000,31756.70289,1.91436,405.995,33.306,45.060,45.000,0.00,0.11,-272.58,-272.65,-19,574,-4,21.8,1.5,-32.8,21.9,1.6,-32.0,5.73,2.55,-16.4,27.9
2013-12-27 01:09:00,0.0,1.91329,0.00057,405.764,0.000,0.0469,0.0013,139.996,45.000,31757.13287,1.91419,405.993,33.313,45.060,45.000,0.00,0.11,-272.58,-272.64,-19,574,-4,21.8,1.5,-32.9,21.9,1.6,-32.0,5.73,2.54,-16.5,27.8
2013-12-27 01:10:00,0.0,1.91330,0.00034,405.764,0.000,0.0457,0.0015,140.006,45.000,31760.95779,1.91425,405.988,33.313,45.060,45.000,0.00,0.11,-272.58,-272.65,-20,574,-4,21.8,1.4,-33.0,21.9,1.6,-32.2,5.73,2.58,-16.5,27.9
2013-12-27 01:11:00,0.0,1.91314,0.00031,405.764,0.000,0.0460,0.0017,140.004,45.000,31758.20366,1.91397,405.988,33.298,45.060,45.000,0.00,0.11,-272.58,-272.64,-19,574,-4,21.9,1.4,-33.1,21.9,1.5,-32.3,5.73,2.63,-16.5,27.8
2013-12-27 01:12:00,0.0,1.91350,0.00032,405.764,0.000,0.0441,0.0005,140.003,45.000,31756.35961,1.91438,405.980,33.313,45.060,45.000,0.00,0.11,-272.58,-272.64,-19,574,-4,21.8,1.4,-33.2,21.9,1.5,-32.3,5.73,2.63,-16.4,27.9
2013-12-27 01:13:00,0.0,1.91319,0.00034,405.650,0.053,0.0436,0.0012,140.003,45.000,31757.18599,1.91400,405.875,33.305,45.060,45.000,0.00,0.11,-272.58,-272.64,-19,574,-4,21.8,1.4,-33.3,21.9,1.5,-32.5,5.73,2.58,-16.4,27.9
2013-12-27 01:14:00,0.0,1.91288,0.00028,405.625,0.000,0.0432,0.0009,139.998,45.000,31756.80451,1.91368,405.838,33.305,45.060,45.000,0.00,0.11,-272.58,-272.65,-19,575,-4,21.9,1.4,-33.5,21.9,1.5,-32.7,5.73,2.54,-16.4,27.9
2013-12-27 01:15:00,0.0,1.91316,0.00047,405.598,0.013,0.0424,0.0025,140.005,45.000,31759.68819,1.91382,405.808,33.313,45.060,45.000,0.00,0.11,-272.58,-272.65,-19,574,-4,21.9,1.4,-33.6,21.9,1.5,-32.8,5.73,2.55,-16.4,27.9
2013-12-27 01:16:00,0.0,1.91333,0.00041,405.592,0.000,0.0414,0.0014,140.001,45.000,31757.99119,1.91425,405.794,33.316,45.060,45.000,0.00,0.11,-272.58,-272.64,-19,574,-4,21.9,1.3,-33.8,21.9,1.4,-33.0,5.73,2.59,-16.5,27.9
2013-12-27 01:17:00,0.0,1.91322,0.00033,405.592,0.000,0.0406,0.0021,140.010,45.000,31761.42931,1.91392,405.791,33.313,45.060,45.000,0.00,0.11,-272.58,-272.64,-19,574,-4,21.8,1.3,-34.0,21.9,1.4,-33.1,5.73,2.63,-16.4,27.9
2013-12-27 01:18:00,0.0,1.91313,0.00029,405.592,0.000,0.0416,0.0018,140.001,45.000,31758.42940,1.91406,405.792,33.313,45.060,45.000,0.00,0.11,-272.58,-272.65,-19,575,-4,21.8,1.3,-34.0,21.9,1.4,-33.1,5.73,2.63,-16.4,27.9
2013-12-27 01:19:00,0.0,1.91322,0.00035,405.592,0.000,0.0397,0.0009,140.003,45.000,31758.29852,1.91385,405.787,33.313,45.060,45.000,0.00,0.11,-272.58,-272.65,-20,574,-4,21.8,1.3,-34.2,21.9,1.4,-33.4,5.73,2.57,-16.4,27.8
2013-12-27 01:20:00,0.0,1.91323,0.00046,405.592,0.000,0.0394,0.0006,140.002,45.000,31758.34720,1.91418,405.784,33.313,45.060,45.000,0.00,0.11,-272.58,-272.64,-19,574,-4,21.8,1.3,-34.3,21.9,1.4,-33.3,5.73,2.54,-16.4,27.8
2013-12-27 01:21:00,0.0,1.91288,0.00031,405.592,0.000,0.0390,0.0019,139.999,45.000,31758.85486,1.91355,405.781,33.313,45.060,45.000,0.00,0.11,-272.58,-272.64,-19,574,-4,21.8,1.3,-34.2,21.9,1.4,-33.4,5.73,2.55,-16.5,27.8
2013-12-27 01:22:00,0.0,1.91297,0.00039,405.592,0.000,0.0399,0.0009,140.005,45.000,31760.05024,1.91369,405.786,33.313,45.060,45.000,0.00,0.11,-272.58,-272.65,-19,574,-4,21.8,1.3,-34.2,21.9,1.4,-33.4,5.73,2.60,-16.5,27.8
2013-12-27 01:23:00,0.0,1.91257,0.00033,405.592,0.000,0.0417,0.0018,140.002,45.000,31760.50334,1.91357,405.794,33.313,45.060,45.000,0.00,0.11,-272.58,-272.64,-19,574,-4,21.9,1.3,-34.2,21.9,1.4,-33.4,5.73,2.64,-16.5,27.8
2013-12-27 01:24:00,0.0,1.91256,0.00038,405.592,0.000,0.0395,0.0023,139.998,45.000,31759.96412,1.91315,405.785,33.313,45.060,45.000,0.00,0.11,-272.58,-272.64,-19,574,-4,21.8,1.3,-34.4,21.9,1.4,-33.5,5.73,2.62,-16.5,27.8
2013-12-27 01:25:00,0.0,1.91239,0.00020,405.592,0.000,0.0397,0.0010,140.004,45.000,31761.30269,1.91327,405.786,33.313,45.060,45.000,0.00,0.11,-272.58,-272.64,-19,574,-4,21.9,1.3,-34.4,21.9,1.4,-33.5,5.73,2.56,-16.5,27.9
2013-12-27 01:26:00,0.0,1.91277,0.00028,405.592,0.000,0.0387,0.0009,140.001,45.000,31759.95965,1.91343,405.780,33.313,45.060,45.000,0.00,0.11,-272.58,-272.64,-19,574,-4,21.9,1.2,-34.5,21.9,1.4,-33.6,5.73,2.53,-16.4,27.8
2013-12-27 01:27:00,0.0,1.91272,0.00019,405.581,0.005,0.0395,0.0012,139.993,45.000,31757.56605,1.91347,405.775,33.313,45.060,45.000,0.00,0.11,-272.58,-272.64,-19,574,-4,21.9,1.3,-34.4,21.9,1.4,-33.5,5.73,2.57,-16.4,27.9
2013-12-27 01:28:00,0.0,1.91297,0.00061,405.579,0.000,0.0408,0.0012,140.000,45.000,31756.64317,1.91380,405.777,33.316,45.060,45.000,0.00,0.11,-272.58,-272.65,-19,574,-4,21.9,1.3,-34.2,21.9,1.4,-33.4,5.73,2.63,-16.4,27.9
2013-12-27 01:29:00,0.0,1.91283,0.00032,405.579,0.000,0.0401,0.0010,140.001,45.000,31757.36693,1.91354,405.774,33.313,45.060,45.000,0.00,0.11,-272.58,-272.65,-19,574,-4,21.9,1.3,-34.2,21.9,1.4,-33.4,5.73,2.63,-16.4,27.9
2013-12-27 01:30:00,0.0,1.91262,0.00040,405.579,0.000,0.0408,0.0009,140.007,45.000,31760.22754,1.91343,405.779,33.313,45.060,45.000,0.00,0.11,-272.58,-272.64,-19,574,-4,21.9,1.3,-34.3,21.9,1.4,-33.4,5.73,2.59,-16.5,27.9
2013-12-27 01:31:00,0.0,1.91277,0.00011,405.579,0.000,0.0403,0.0012,140.006,45.000,31759.29580,1.91345,405.775,33.313,45.060,45.000,0.00,0.11,-272.58,-272.65,-19,574,-4,21.9,1.3,-34.2,21.9,1.4,-33.3,5.73,2.54,-16.4,27.9
2013-12-27 01:32:00,0.0,1.91296,0.00035,405.579,0.000,0.0393,0.0013,140.002,45.000,31758.28442,1.91367,405.772,33.313,45.060,45.000,0.00,0.11,-272.58,-272.65,-20,574,-4,21.9,1.3,-34.2,21.9,1.4,-33.6,5.73,2.54,-16.5,27.9
2013-12-27 01:33:00,0.0,1.91304,0.00013,405.579,0.000,0.0397,0.0006,139.990,45.000,31754.87995,1.91379,405.772,33.313,45.060,45.000,0.00,0.11,-272.58,-272.65,-19,574,-4,21.9,1.2,-34.4,21.9,1.3,-33.7,5.73,2.59,-16.4,27.9
2013-12-27 01:34:00,0.0,1.91315,0.00044,405.579,0.000,0.0375,0.0012,139.993,45.000,31754.61909,1.91388,405.765,33.313,45.060,45.000,0.00,0.11,-272.58,-272.64,-19,574,-4,21.9,1.2,-34.8,21.9,1.3,-33.8,5.73,2.64,-16.4,27.8
2013-12-27 01:35:00,0.0,1.91281,0.00027,405.579,0.000,0.0380,0.0011,140.002,45.000,31758.37043,1.91357,405.762,33.313,45.060,45.000,0.00,0.11,-272.58,-272.64,-19,575,-4,21.9,1.2,-35.2,21.9,1.3,-34.2,5.73,2.62,-16.5,27.8
2013-12-27 01:36:00,0.0,1.91254,0.00027,405.579,0.000,0.0378,0.0018,140.001,45.000,31758.80210,1.91331,405.764,33.313,45.060,45.000,0.00,0.11,-272.58,-272.64,-20,574,-4,21.9,1.2,-35.3,21.9,1.2,-34.6,5.73,2.57,-16.5,27.9
2013-12-27 01:37:00,0.0,1.91265,0.00037,405.579,0.000,0.0377,0.0026,140.003,45.000,31759.07230,1.91324,405.763,33.313,45.060,45.000,0.00,0.11,-272.58,-272.64,-19,574,-4,21.9,1.1,-35.4,21.9,1.2,-34.5,5.73,2.54,-16.4,27.8
2013-12-27 01:38:00,0.0,1.91275,0.00052,405.579,0.000,0.0369,0.0021,139.997,45.000,31755.25374,1.91357,405.758,33.313,45.060,45.000,0.00,0.11,-272.58,-272.64,-19,574,-4,21.9,1.1,-35.4,22.0,1.3,-34.4,5.73,2.56,-16.4,27.9
2013-12-27 01:39:00,0.0,1.91268,0.00014,405.579,0.000,0.0348,0.0015,140.003,45.000,31757.34809,1.91329,405.753,33.318,45.060,45.000,0.00,0.11,-272.58,-272.65,-19,575,-4,21.9,1.1,-35.3,21.9,1.3,-34.3,5.73,2.62,-16.5,27.9
2013-12-27 01:40:00,0.0,1.91301,0.00047,405.574,0.005,0.0358,0.0012,140.001,45.000,31756.34851,1.91354,405.750,33.313,45.060,45.000,0.00,0.11,-272.58,-272.64,-20,574,-4,21.9,1.1,-35.4,22.0,1.2,-34.5,5.73,2.64,-16.4,27.9
2013-12-27 01:41:00,0.0,1.91274,0.00019,405.569,0.000,0.0367,0.0011,140.000,45.000,31755.73760,1.91362,405.746,33.313,45.060,45.000,0.00,0.11,-272.58,-272.64,-19,574,-4,21.8,1.1,-35.4,21.9,1.2,-34.5,5.73,2.61,-16.4,27.9
2013-12-27 01:42:00,0.0,1.91300,0.00029,405.555,0.004,0.0363,0.0009,140.003,45.000,31755.56798,1.91368,405.734,33.307,45.060,45.000,0.00,0.11,-272.58,-272.65,-19,574,-4,21.9,1.1,-35.4,21.9,1.2,-34.6,5.73,2.55,-16.5,27.9
2013-12-27 01:43:00,0.0,1.91316,0.00026,405.554,0.000,0.0377,0.0022,139.995,45.000,31754.46347,1.91366,405.733,33.313,45.060,45.000,0.00,0.11,-272.58,-272.64,-19,575,-4,21.9,1.1,-35.4,21.9,1.2,-34.5,5.73,2.54,-16.5,27.9
2013-12-27 01:44:00,0.0,1.91289,0.00019,405.554,0.000,0.0375,0.0011,139.994,45.000,31755.59909,1.91369,405.739,33.313,45.060,45.000,0.00,0.11,-272.58,-272.64,-19,575,-4,21.9,1.1,-35.3,21.9,1.2,-34.6,5.73,2.58,-16.5,27.9
2013-12-27 01:45:00,0.0,1.91331,0.00026,405.554,0.000,0.0356,0.0010,140.004,45.000,31754.32067,1.91390,405.730,33.313,45.060,45.000,0.00,0.11,-272.58,-272.65,-19,574,-4,21.9,1.1,-35.4,21.9,1.3,-34.4,5.73,2.62,-16.5,27.9